Location: Dodgeville, WI 53533, USA
(43.0344°N, 90.0900°W)
Time: 23:55:25
(UTC-06:00)

ISS - Pass Details

Date: 27 January 2021
Orbit: 417 x 422 km, 51.6° (Epoch: 05 March)

Event Time Altitude Azimuth Distance (km) Brightness Sun altitude
Rises 18:47:25 0° 297° (WNW) 2,373 1.0 -18.4°
Reaches altitude 10° 18:49:57 10° 316° (NW) 1,509 -0.5 -18.9°
Enters shadow 18:52:17 19° 360° (N) 1,084 -1.8 -19.3°
